Simultaneous Nadir Overpasses (SNOs) Predictions

Prediction of SNOs between AQUA and METOP-B Satellite Orbit:

Table of predicted SNOs for the next 14.0 days since TLE Epoch: 2/1/2019
Index Date (AQUA) Time (AQUA) Lat,Lon (AQUA) SZA (AQUA ) Date (METOP-B) Time (METOP-B) Lat,Lon (METOP-B) SZA (METOP-B ) Distance(km) Time Diff (sec)
1 02/02/2019 05:25:15 -73.78, -86.99 89.23 02/02/2019 05:24:02 -73.75, -87.22 89.23 7.62 73
2 02/02/2019 06:14:45 73.90, 80.38 90.90 02/02/2019 06:14:39 73.88, 80.41 90.87 3.00 6
3 02/02/2019 07:04:11 -73.93,-112.05 89.09 02/02/2019 07:05:20 -73.93,-112.12 89.09 2.36 69
4 02/05/2019 00:59:32 -73.83, -20.66 90.00 02/05/2019 00:58:25 -73.82, -20.64 90.00 1.10 67
5 02/05/2019 01:49:01 73.91, 146.80 90.07 02/05/2019 01:49:03 73.89, 146.86 90.06 2.27 2
6 02/05/2019 02:38:30 -74.08, -45.96 89.75 02/05/2019 02:39:42 -74.05, -45.43 89.82 16.50 72
7 02/07/2019 20:33:48 -73.83, 45.77 90.86 02/07/2019 20:32:49 -73.84, 45.81 90.85 1.41 59
8 02/07/2019 21:23:17 73.92,-146.78 89.22 02/07/2019 21:23:27 73.91,-146.69 89.21 2.87 10
9 02/07/2019 22:12:51 -74.34, 19.88 90.33 02/07/2019 22:14:00 -74.36, 21.77 90.40 56.68 69
10 02/10/2019 16:08:03 -73.84, 112.19 91.76 02/10/2019 16:07:12 -73.86, 112.25 91.73 2.58 51
11 02/10/2019 16:57:31 73.88, -80.26 88.28 02/10/2019 16:57:51 73.88, -80.37 88.28 3.34 20
12 02/13/2019 11:42:19 -73.85, 178.60 92.67 02/13/2019 11:41:36 -73.87, 178.69 92.65 3.36 43
13 02/13/2019 12:31:47 73.90, -13.87 87.37 02/13/2019 12:32:15 73.89, -13.93 87.36 2.26 28




NCC Satellite Simultaneous Nadir Overpasses (SNOs) Prediction Service
